STARLINK-32650, 62231

Orbit data source: Space-Track

STARLINK-32650, 62231 is a payload satellite owned by SpaceX/Seattle (US) in LEO that was launched on Thu, 05 Dec 2024 UTC via an FALCON 9 launch vehicle from the Air Force Western Test Range (AFWTR). Payload-class satellites include a variety of spacecraft equipped with specific instruments for various scientific and technological missions. These include communications satellites like Starlink; space stations such as the ISS; scientific satellites like the Hubble; Earth observation satellites from companies like Planet Labs, Umbra, and HawkEye 360; GPS; miniature CubeSats for education and research; and military/defense satellites.

Loading next visibility...
Identifier
62231, 2024-231P
Orbit
LEO
Country
Flag of USUS
Related business
Manufacturer
SpaceX/Seattle
Mission
Operational Commercial Communications
Bus & Motor
STARLINK V2M, Unknown motor
Mass
730 kg wet, ~700 kg dry
Launch date (UTC)
2024-12-05 (2 years ago)
Launch vehicle
FALCON 9
Launch site
Air Force Western Test Range (AFWTR)
Object type
Payload
Rocket body
Debris
Shape & HBR
Box + 2 Pan, 17.7 m
Radar Cross Section
33.884 m², Large (>1 m²)

Expand to show TLE details & history
Last TLE update: 7 hours ago

TLE from 7 hours ago
0 STARLINK-32650
1 62231U 24231P   26256.87863011  .00027519  00000-0  89446-3 0  9999
2 62231  53.1590  64.6129 0000191 302.8770  57.2213 15.31729107100596
Epoch: 2026-09-13T21:05Z
TLE epoch observation values (Epoch: 2026-09-13T21:05:13.641Z)
Latitude
-0.00002°
Longitude
115.43909°
Altitude
471.483 km
Speed
7.632 km/s
True Right ascension
04h 18m 27s
True Declination
0° 00' 00"
Sunlit
Object was in daylight at epoch
Visualization orbit readout
Latitude
Unknown
Longitude
Unknown
Altitude
Unknown
Speed
Unknown
Apparent Right ascension
Unknown
Apparent Declination
Unknown
Sunlit
N/A
Visualization observer readout
Local Sidereal Time
21:04:03
Azimuth
Unknown
Elevation
Unknown
Doppler factor
Unknown
Orbital elements
Apogee altitude
471.041 km
Perigee altitude
470.779 km
Semi-major axis
6,849.047 km
Eccentricity
0.00002
Inclination
53.159°
RAAN
64.6129°
Arg. of periapsis
302.877°
True anomaly
57.22314°
Mean anomaly
57.2213°
Eccentric anomaly
57.22222°
Mean motion
3.82911 °/min
Orbital period
94.02 mins
BSTAR
0.00089446
Loading maneuver chart data...
Computing Atmospheric mass density...
Loading historical data...
Loading historical data...
Loading historical data...
Loading historical data...
Loading historical data...
Loading historical data...
Loading historical data...

Documentation

Showing up to 5 results
|